Location: La Fredeussais
(48.1780°N, 1.3980°W)
Time: 03:57:42
(UTC+00:00)

CZ-4C R/B - Pass Details

Date: 09 May 2021
Orbit: 609 x 1392 km, 63.4° (Epoch: 13 June)

Event Time Altitude Azimuth Distance (km) Brightness Sun altitude
Rises 21:08:11 0° 318° (NW) 3,759 7.6 -13.7°
Reaches altitude 10° 21:10:38 10° 320° (NW) 2,911 6.5 -13.9°
Maximum altitude 21:17:45 80° 48° (NE) 1,243 3.0 -14.7°
Enters shadow 21:23:48 20° 134° (SE) 2,627 4.1 -15.3°
